{"data":{"norad_id":54656,"intl_designator":"2022-166Q","name":"ONEWEB-0590","alt_names":[],"object_type":"PAYLOAD","status":"ACTIVE","operator":null,"country":"UK","launch_date":"2022-12-08","launch_site_code":"AFETR","launch_vehicle":null,"mission":null,"orbit_class":"UNKNOWN","rcs_meters":null,"size_class":null,"mass_kg":null,"dimensions":null,"purposes":["comms"],"wikipedia_slug":null,"has_3d_model":false,"image_url":null,"decayed_at":null,"tle_current":{"epoch":"2026-05-24T23:35:42.087264Z","epoch_age_seconds":86582,"freshness":"FRESH","line1":"1 54656U 22166Q   26144.98312601 -.00000027  00000+0 -97922-4 0  9993","line2":"2 54656  87.9260 248.5867 0002223 111.6532 248.4839 13.21825356168467","mean_motion":13.21825356,"eccentricity":0.0002223,"inclination_deg":87.926,"raan_deg":248.5867,"arg_perigee_deg":111.6532,"mean_anomaly_deg":248.4839,"bstar":-9.7922e-5,"rev_number":16846,"period_min":108.94026154541,"perigee_km":1176.0761475719,"apogee_km":1179.4354975208,"semimajor_km":7555.8928225463,"source":"CELESTRAK","updated_at":"2026-05-25T13:38:22.631110Z"}}}